Simultaneous Nadir Overpasses (SNOs) Predictions

Prediction of SNOs between GOES-16 and NOAA-20 Satellite Orbit:

Table of predicted SNOs for the next 14.0 days since TLE Epoch: 4/27/2024
Index Date Time (GOES-16) GOES-16 Lat,Lon NOAA-20 Lat,Lon Distance(km) Time Diff (sec)
1 04/27/2024 06:40:14 -0.03, -75.21 0.66, -78.31 353.80 80
2 04/28/2024 06:18:47 -0.03, -75.21 -0.32, -73.77 163.03 80
3 04/29/2024 18:40:41 0.02, -75.21 -0.86, -79.07 440.31 80
4 04/30/2024 18:24:36 0.02, -75.22 0.19, -74.55 77.00 80
5 05/03/2024 06:27:35 -0.01, -75.23 0.00, -75.27 4.48 80
6 05/05/2024 18:28:03 0.01, -75.26 -0.15, -76.04 88.31 80
7 05/06/2024 18:11:56 0.01, -75.27 0.85, -71.50 430.00 80
8 05/08/2024 06:33:41 -0.01, -75.29 0.32, -76.76 167.61 80
9 05/09/2024 06:12:15 -0.01, -75.31 -0.69, -72.23 350.77 80
10 05/10/2024 18:34:08 0.01, -75.33 -0.48, -77.52 250.32 80
